Погода в Хандыге

Россия / Республика Саха (Якутия)     62°39′12″N   135°33′46″E
темп.,
°C
ветер,
м/с
пор.,
м/с
влажн.,
%
обл.,
%
осадки,
мм/ч
давл.,
гПа
погр.,
м
3 марта, ср
ср300:00−29в0099100 0.1 102219
03:00−29ююв0099100 0.2 102219
06:00−29юз0099100 0.1 102119
09:00−28ююв0196100 0.2 1020166
12:00−26юз1189100 0.1 1019561
15:00−25з1187100 0.3 1018654
18:00−27зюз0098100 0.1 101819
21:00−28ююз1199100 0.1 101720
4 марта, чт
чт400:00−28юз1199100 0.1 101619
03:00−29ююз1199100 0.1 101619
06:00−30зюз1199100 0.1 101519
09:00−29з1297100 0.2 1015167
12:00−27з2290100 0.1 1016471
15:00−27з2289100 0.1 1017652
18:00−30з2297100 0.0 101926
21:00−33зсз2399100 0.1 102151
5 марта, пт
пт500:00−35зсз2295100 0.0 102235
03:00−37зсз2295100 0.0 102341
06:00−39з229698 0.0 102420
09:00−36з129499 0.0 1025114
12:00−32з128599 0.0 1024439
15:00−30з128499 0.0 1024607
18:00−32зюз1194100 0.0 102619
21:00−33юз1198100 0.0 102520
6 марта, сб
сб600:00−34ююз1198100 0.0 102420
03:00−34зюз1198100 0.1 102433
06:00−34з1198100 0.1 102523
09:00−32з0193100 0.1 1024202
12:00−29з1186100 0.0 1023526
15:00−28з1185100 0.0 1023574
18:00−30з0098100 0.1 102419
21:00−33юв0099100 0.1 102519
7 марта, вс
вс700:00−34вюв1199100 0.0 102419
03:00−36юв1110087 0.0 102419
06:00−38вюв1110058 0.0 102519
09:00−33вюв119561 0.0 1024113
12:00−28юв008682 0.0 1023420
15:00−27с018491 0.0 1023487
18:00−32в119396 0.0 102319
21:00−34в129495 0.0 102419